Location: Newark
(0.5333°S, 166.9167°E)
Time: 09:54:58
(UTC+00:00)

Tiangong 2 - Visible Passes

Search period start: 26 March 2019 00:00
Search period end: 05 April 2019 00:00
Orbit: 380 x 389 km, 42.8° (Epoch: 26 March)

Date Brightness Start Highest point End Pass type
(mag) Time Alt. Az. Time Alt. Az. Time Alt. Az.
26 Mar 3.6 08:02:21 10° W 08:04:45 20° NW 08:07:08 10° N visible
28 Mar 3.4 17:34:30 15° N 17:36:13 22° NE 17:38:45 10° E visible
29 Mar 1.7 18:11:16 17° WNW 18:13:18 38° SW 18:16:18 10° SSE visible
30 Mar 3.4 17:15:42 22° ESE 17:15:42 22° ESE 17:16:58 10° SE visible
31 Mar 3.5 17:52:18 12° SSW 17:52:18 12° SSW 17:52:49 10° S visible
